Wind_Speed
19 19 15 5 3 3 10 15 18 11 12 4 2 4 5 2 7 5 10 12 9 13 17 19 21 21 22 22 24 26 28 28
24 17 13 9 10 6 22 19 12 5 4 4 9 11 11 10 9 11 12 12 13 18 22 20 21 22 22 23 25 28 28 26
17 15 13 16 18 21 14 14 10 9 8 10 9 8 5 8 12 17 16 20 22 27 22 20 17 19 21 23 24 26 26 26
11 17 18 19 21 19 19 17 14 12 11 11 11 10 10 13 15 18 23 30 28 20 17 19 18 17 20 24 24 23 20 24
12 18 16 18 19 18 15 12 10 9 9 3 4 1 4 8 11 21 21 13 17 17 19 20 21 17 20 22 19 21 20 20
11 14 15 15 13 11 8 5 5 3 2 0 3 9 14 15 11 12 14 12 18 20 19 20 19 22 22 24 19 18 12 11
10 12 15 12 9 7 5 5 4 5 6 5 12 9 10 12 13 13 16 18 19 18 20 21 19 19 21 19 13 14 13 10
4 7 10 7 4 4 6 14 17 15 10 7 9 9 13 13 14 15 18 19 16 20 21 21 20 18 13 13 12 9 10 10
6 7 6 7 9 11 11 10 16 18 14 12 11 13 16 16 16 16 15 15 18 20 19 20 15 14 14 13 11 10 10 11
3 5 7 1 5 10 10 8 11 15 13 11 11 13 15 15 12 11 14 13 15 20 22 20 19 16 14 14 15 17 17 22
4 10 12 13 18 19 17 15 13 12 14 14 12 19 12 11 13 13 12 17 21 20 19 20 20 18 16 20 20 18 18 19
4 15 20 20 21 18 12 12 14 16 15 15 16 13 12 13 13 13 15 16 18 20 20 20 20 20 19 17 19 17 17 20
13 17 18 18 17 18 17 16 15 14 15 15 17 15 15 17 16 15 16 16 16 18 20 20 21 20 20 20 21 20 21 19
9 12 15 19 21 19 19 18 13 9 14 14 16 14 15 15 17 15 13 16 18 19 20 21 21 21 21 21 20 16 19 21
10 13 16 18 18 19 15 19 11 16 17 14 13 12 10 12 14 14 16 18 19 20 19 19 21 22 22 14 14 18 20 21
12 12 16 16 17 17 19 19 21 17 17 14 16 15 11 12 9 12 16 18 17 17 20 21 22 21 11 16 16 17 19 22
13 16 16 16 18 19 23 23 24 11 18 20 20 22 14 9 11 13 16 17 17 19 19 20 19 16 16 17 21 23 21 22
13 14 15 17 19 23 23 26 29 25 23 19 12 10 11 9 12 13 18 17 19 19 20 18 14 15 13 20 20 22 19 23
13 15 17 17 22 22 25 27 29 33 30 16 14 11 10 15 7 10 18 18 19 20 16 14 15 15 22 26 21 19 21 22
Wind_Direction
155 163 181 169 317 36 93 130 115 172 151 124 292 228 258 307 10 5 9 344 355 335 315 308 307 302 299 302 306 307 304 299
65 68 57 55 31 13 105 97 79 108 128 96 35 20 11 14 1 27 2 343 344 336 318 318 321 319 316 316 314 306 300 301
66 69 61 51 60 83 80 89 78 50 80 59 50 15 359 356 13 6 359 353 343 327 306 313 316 327 330 324 326 324 316 313
80 71 62 62 58 69 77 77 64 62 61 65 38 13 3 0 348 330 313 306 312 307 321 327 329 324 324 317 314 314 325 317
96 91 80 73 64 67 72 75 74 55 69 123 91 77 274 287 302 305 312 318 322 342 338 333 331 327 324 312 317 320 319 317
72 85 89 84 79 69 66 83 71 61 352 273 290 324 326 313 330 323 333 359 351 342 331 327 327 325 318 310 307 311 324 348
92 110 109 104 85 60 30 353 327 257 251 314 343 340 328 333 333 358 3 352 339 326 329 327 323 320 316 318 337 330 335 327
94 93 85 83 47 2 327 341 337 330 306 327 322 339 354 4 9 7 355 337 335 333 327 324 319 315 324 340 352 348 347 341
64 47 10 18 358 339 339 342 328 331 337 343 355 14 13 5 359 347 335 335 332 325 343 340 342 341 333 331 331 335 324 319
144 249 168 45 353 349 347 320 322 318 347 17 23 14 353 336 330 327 326 341 349 340 337 336 342 341 344 338 324 313 314 309
348 11 11 10 10 6 0 352 350 359 356 353 346 339 325 326 330 328 356 345 344 337 341 339 331 328 324 325 317 314 314 307
21 24 22 15 4 346 4 15 8 351 344 343 328 320 327 327 336 1 356 344 331 325 321 315 315 311 311 318 310 306 300 302
17 15 13 8 5 2 358 350 332 333 332 324 324 329 336 336 335 338 334 323 320 320 315 316 313 317 318 313 305 301 295 295
16 8 356 348 345 345 324 314 324 320 313 311 317 330 341 338 325 321 327 326 320 324 326 322 324 317 313 312 316 335 346 338
11 354 341 340 335 309 315 325 327 301 290 281 308 319 310 307 308 330 329 325 324 322 324 324 323 323 321 328 335 328 328 323
353 330 329 332 324 323 318 321 313 326 313 291 298 280 275 280 315 327 321 319 321 326 323 321 322 321 324 335 338 331 325 319
331 336 328 328 331 330 331 317 316 312 298 286 304 302 284 313 322 320 314 317 326 320 317 317 319 334 328 339 335 331 328 319
328 319 327 338 340 330 329 331 324 313 301 302 323 329 305 289 294 320 322 321 317 315 313 316 326 334 330 339 328 329 323 319
311 325 331 340 326 328 333 333 328 321 319 318 308 307 278 272 325 319 306 313 315 313 327 333 331 326 317 320 317 323 317 316
Height
784 791 797 802 804 806 809 812 815 828 829 828 832 834 836 837 837 836 837 838 838 838 837 834 832 830 827 825 822 820 817 814
790 796 801 804 808 810 812 816 822 826 828 828 831 833 834 836 837 838 838 838 837 837 837 834 830 828 826 823 820 817 814 811
799 804 808 811 815 817 819 822 826 829 829 831 834 836 837 838 838 837 837 837 837 837 835 831 829 825 823 822 818 815 812 810
807 813 817 819 820 822 824 828 831 832 832 833 836 837 835 835 835 836 835 833 834 835 832 830 828 825 822 820 818 815 810 808
812 818 825 827 827 828 831 833 834 834 834 835 836 835 834 833 831 833 831 830 831 831 829 828 826 824 822 819 816 813 810 806
819 824 829 831 832 834 835 835 837 837 836 837 836 835 833 832 831 831 830 829 829 828 828 825 823 820 818 816 812 809 807 806
826 828 830 833 835 837 837 837 836 835 835 835 834 833 831 831 830 829 828 828 828 828 825 823 820 818 816 813 809 807 805 804
824 826 829 833 835 836 836 836 835 835 832 831 832 831 831 830 830 829 829 829 828 826 823 821 818 815 812 810 807 806 805 802
828 830 832 832 833 833 833 834 836 835 832 831 831 831 831 831 831 830 829 828 826 824 822 820 816 812 810 807 806 805 803 802
826 828 827 829 831 831 831 831 834 834 833 831 829 829 829 829 828 828 827 825 824 822 820 817 816 811 808 806 806 804 800 801
826 827 827 829 831 832 832 832 831 832 831 830 828 828 828 828 828 827 824 823 822 821 819 816 815 812 809 807 805 802 799 797
826 828 830 832 834 832 832 831 831 831 831 829 830 829 827 827 826 823 822 821 820 818 817 815 812 810 807 803 802 799 797 794
830 833 834 834 835 834 833 832 832 831 831 831 830 828 826 826 825 822 821 820 818 816 813 811 809 807 804 801 798 795 792 791
832 835 834 835 835 834 834 832 830 828 829 827 827 826 824 824 824 821 820 818 816 813 811 809 807 804 802 799 796 793 791 789
835 837 837 836 835 834 831 830 827 826 824 822 821 821 820 820 819 818 817 816 813 811 809 807 805 802 799 795 794 791 789 787
838 840 837 835 834 832 829 827 824 822 823 821 815 812 811 811 812 812 814 813 811 808 806 804 802 799 795 793 791 790 787 785
839 838 836 833 832 830 828 825 821 816 816 813 811 811 805 808 810 810 810 809 808 806 803 801 799 797 794 791 789 788 786 783
840 837 834 832 831 829 826 823 819 814 809 806 805 808 808 806 806 806 807 806 804 802 799 798 796 794 791 788 787 785 783 780
839 835 833 831 830 827 824 821 817 812 807 802 804 803 801 803 798 803 806 803 800 797 796 795 793 791 788 786 783 781 778 775